This is the latest recevied weather packets stored in our database for station/object OK1FET-5. If no packets are shown the sender has not sent any weather packets the latest 10 day(s).
| Time | Temp. | Humidity | Pressure | Rain* | Wind** | Luminosity | Snow |
|---|---|---|---|---|---|---|---|
| 1787411831 | 21.11° C | 76% | 1019.3 hPa | - | - | - | - |
| 1787411235 | 21.11° C | 71% | 1019.2 hPa | - | - | - | - |
| 1787410639 | 21.67° C | 81% | 1019.2 hPa | - | - | - | - |
| 1787410043 | 21.11° C | 79% | 1019.2 hPa | - | - | - | - |
| 1787409447 | 21.11° C | 78% | 1019.2 hPa | - | - | - | - |
| 1787408256 | 20.56° C | 81% | 1019.1 hPa | - | - | - | - |
| 1787407660 | 21.67° C | 80% | 1019.1 hPa | - | - | - | - |
| 1787407064 | 21.67° C | 80% | 1019 hPa | - | - | - | - |
| 1787406469 | 21.67° C | 79% | 1018.9 hPa | - | - | - | - |
| 1787405873 | 21.11° C | 78% | 1018.8 hPa | - | - | - | - |
| 1787405277 | 21.67° C | 79% | 1018.7 hPa | - | - | - | - |
| 1787404681 | 21.11° C | 75% | 1018.5 hPa | - | - | - | - |
| 1787404085 | 21.11° C | 68% | 1018.5 hPa | - | - | - | - |
| 1787403490 | 21.11° C | 69% | 1018.5 hPa | - | - | - | - |
| 1787402894 | 21.11° C | 76% | 1018.4 hPa | - | - | - | - |
| 1787402298 | 21.11° C | 77% | 1018.5 hPa | - | - | - | - |
| 1787401702 | 20.56° C | 82% | 1018.4 hPa | - | - | - | - |
| 1787401106 | 21.11° C | 77% | 1018.5 hPa | - | - | - | - |
| 1787400511 | 21.11° C | 79% | 1018.3 hPa | - | - | - | - |
| 1787399915 | 21.11° C | 70% | 1018.2 hPa | - | - | - | - |
| 1787399319 | 21.11° C | 78% | 1018.1 hPa | - | - | - | - |
| 1787398723 | 20° C | 78% | 1017.9 hPa | - | - | - | - |
| 1787398127 | 19.44° C | 83% | 1017.7 hPa | - | - | - | - |
| 1787397532 | 16.67° C | 88% | 1017.6 hPa | - | - | - | - |
| 1787396936 | 15.56° C | 88% | 1017.2 hPa | - | - | - | - |
* Rain since midnight (hover to see other rain measurements)
** Current wind speed in m/s (hover to see current wind gust speed)